Regional Weather Roundup
Issued by NWS Wakefield, VA

Home | Current Version | Previous Version | Graphics & Text | Print | Product List | Glossary On
Versions: 1 2 3 4 5 6 7 8 9 10 11 12 13 14 15 16 17 18 19 20 21 22 23 24 25 26 27 28 29 30 31 32 33 34 35 36 37 38 39 40 41 42 43 44 45 46 47 48 49 50
000
ASUS41 KAKQ 280415
RWRAKQ

REGIONAL WEATHER ROUNDUP
NATIONAL WEATHER SERVICE WAKEFIELD VA
1200 AM EDT THU JUL 28 2016

Note: "fair" indicates few or no clouds below 12,000 feet with no
significant weather and/or obstructions to visibility. * = Denotes
station may not report precipitation (e.g., rain,snow,etc.),
thunder or fog.

VAZ042-051-052>054-056-280500-
NORTHERN VIRGINIA

CITY           SKY/WX    TMP DP  RH WIND       PRES   REMARKS
WASH NATIONAL  FAIR      84  74  71 S8        29.91S
DULLES         FAIR      79  71  76 W3        29.92S
FORT BELVOIR   FAIR      77  73  87 CALM      29.91S
QUANTICO       FAIR      83  74  74 SW5       29.91F
FREDERICKSBRG* FAIR      79  75  90 CALM      29.91S
STAFFORD*      FAIR      75  73  93 CALM      29.96S
WARRENTON      FAIR      76  70  81 S3        29.92S
CULPEPER*      FAIR      74  74  99 CALM      29.93S
MANASSAS*      FAIR      77  75  94 CALM      29.91S
LEESBURG*      FAIR      79  73  83 CALM      29.93S
WINCHESTER     FAIR      72  70  94 SE3       29.94F
FRONT ROYAL*   FAIR      72  70  94 S5        29.93F
LURAY*         FAIR     N/A N/A N/A CALM      29.96F
$$

VAZ048-049-060>072-079>083-280500-
CENTRAL AND SOUTH CENTRAL VIRGINIA

CITY           SKY/WX    TMP DP  RH WIND       PRES   REMARKS
RICHMOND       FAIR      79  74  84 NW5       29.93R
CHESTERFIELD*  FAIR      77  63  61 W3        29.95R
PETERSBURG*    FAIR      77  77 100 CALM      29.95S
HANOVER        FAIR      77  73  87 W6        29.95S
TAPPAHANNOCK*  FAIR      76  76 100 CALM      29.93S
QUINTON*       FAIR      77  76  95 SE5       29.92R
CHARLOTTSVILLE FAIR      75  73  93 SW5       29.94S
GORDONSVILLE*  FAIR      73  73 100 CALM      29.93S
ORANGE*          N/A     73  73 100 CALM      29.95S
LOUISA*        FAIR      75  75 100 CALM      29.93S
BUMPASS*       FAIR      73  73  99 CALM      29.94S
FARMVILLE*     FAIR     N/A N/A N/A CALM      29.95S HAZE
CREWE*         NOT AVBL
FORT PICKETT*  FAIR      74  73  98 CALM      29.96S
CHASE CITY*    FAIR      74  73  95 CALM      29.96S
CLARKSVILLE*     N/A     73  73 100 CALM      29.95S
SOUTH HILL*    FAIR      74  73  96 CALM      30.01S
LAWRENCEVILLE* FAIR      77  76  95 CALM      29.94F
EMPORIA*         N/A     77  73  88 W3        29.95S
$$

VAZ088>098-280500-
SOUTHEAST VIRGINIA

CITY           SKY/WX    TMP DP  RH WIND       PRES   REMARKS
NORFOLK        FAIR      84  77  79 S7        29.92R
VIRGINIA BEACH CLOUDY    88  77  69 S6        29.91R HX 100
NORFOLK NAVAL  MOCLDY    84  77  79 S6        29.93S
WEST POINT*    FAIR      75  74  95 CALM      29.93S
SALUDA*        FAIR      74  74 100 CALM      29.92S
NEWPORT NEWS   FAIR      79  76  90 CALM      29.92S
LANGLEY AFB    MOCLDY    82  79  89 SE3       29.91S
FORT EUSTIS    FAIR      80  77  90 N2        29.90S
WILLIAMSBURG*  FAIR      79  79 100 CALM      29.93S
HR EXEC AP*    FAIR      79  75  89 CALM      29.95R
FRANKLIN*      MOCLDY    79  76  91 NW5       29.94R THUNDER
US460-WAKEFLD  FAIR      78  75  90 CALM      29.93S
$$

VAZ020-022-025-037-045-280500-
WEST CENTRAL AND SOUTHWEST VIRGINIA

CITY           SKY/WX    TMP DP  RH WIND       PRES   REMARKS
STAUNTON*      FOG       69  69  99 CALM      30.00S VSB 1
WAYNESBORO*    MOCLDY    70  69  96 CALM      30.00S
HOT SPRINGS VA FAIR      70  66  88 W7        30.13S
LYNCHBURG      FAIR      72  71  97 S5        29.98S
DANVILLE       FAIR      73  72  96 CALM      29.97S
SOUTH BOSTON*  FAIR     N/A N/A N/A CALM      29.96F
MARTINSVILLE   FAIR      71  70  97 CALM      30.01R FOG
ROANOKE        FAIR      75  74  96 CALM      30.00F
BLACKSBURG     FAIR      72  72  99 CALM      30.07F
DUBLIN*        FAIR      74  73  99 W3        30.06F FOG
MARION*        MOCLDY    73  71  95 CALM      30.11S
HILLSVILLE*    FAIR      70  69  98 S3        30.09S
RICHLANDS*     MOCLDY    72  71  95 SW9       30.09F
WISE*            N/A     72  68  88 SW3       30.10S
ABINGDON*      MOCLDY    78  71  80 N6        30.07R
$$

MDZ021>025-VAZ099-100-280500-
SOUTHERN MARYLAND AND THE DELMARVA PENINSULA

CITY           SKY/WX    TMP DP  RH WIND       PRES   REMARKS
PATUXENT RIVER PTCLDY    80  73  79 SW5       29.90F
BAY BRIDGE APT PTCLDY    81  75  83 CALM      29.90F
LEONARDTOWN      N/A    N/A N/A N/A MISG        N/A
DOVER          PTCLDY    79  77  94 S5        29.90S
GEORGETOWN     CLOUDY    80  77  90 CALM      29.92S
EASTON         CLOUDY    81  78  92 CALM      29.95S
CAMBRIDGE      CLOUDY    77  73  88 CALM      29.90F
SALISBURY      CLOUDY    80  78  94 SE3       29.91S FOG
OCEAN CITY     PTCLDY    80  78  94 CALM      29.91S
WALLOPS ISLAND FAIR      81  78  91 S6        29.92F
ACCOMACK*      FAIR      79  75  89 CALM      29.92S FOG
$$

NCZ012>017-030>032-280500-
NORTH CENTRAL AND EASTERN NORTH CAROLINA

CITY           SKY/WX    TMP DP  RH WIND       PRES   REMARKS
ROANOKE RAPIDS FAIR      77  73  88 CALM      29.95R
RALEIGH        MOCLDY    77  72  84 CALM      29.96F
ELIZABETH CITY CLOUDY    81  76  84 SW9       29.93R
AHOSKIE*       MOCLDY    78  77  97 CALM      29.95R
EDENTON*       CLOUDY    83  75  75 W6        29.94R
CURRITUCK*     CLOUDY    83  81  91 SW3       29.93R HX  97
KILL DEVIL HLS CLOUDY    81  74  77 SW7       29.90F
MANTEO           N/A     81  77  89 W13       29.91F
CAPE HATTERAS  LGT RAIN  80  74  81 W12       29.92F
TARBORO*       FAIR      80  79  96 CALM      29.96S
GOLDSBORO      CLEAR     83  80  88 SE3       29.94R HX  95
WASHINGTON     CLOUDY    77  72  84 SW6       29.95S
GREENVILLE     CLOUDY    81  73  78 SW7       29.96F
NEW BERN       CLOUDY    76  73  91 S8        29.97F
WILMINGTON     CLEAR     82  78  88 SW7       29.97S
$$

VAZ048-280500-
ELSEWHERE

CITY           SKY/WX    TMP DP  RH WIND       PRES   REMARKS
HARRISBURG PA  PTCLDY    77  70  79 SE5       29.91S
BALTIMORE      PTCLDY    80  71  74 CALM      29.90F
ANNAPOLIS      PTCLDY    83  73  72 CALM      29.89F
ANDREWS AFB    FAIR      77  73  85 S3        29.91S
PHILADELPHIA   PTCLDY    80  68  66 S3        29.91S
GREENSBORO     MOCLDY    75  74  96 CALM      29.98S
ROCKY MOUNT    MOCLDY    81  73  76 CALM      29.96R
$$

VAZ100-280500-
MARINE

STATION/POSITION TIME  TEMP    WIND        PRES    WAVE   SWELL
                       AIR SEA DIR/SP/G            HT/PER HT/PER
                 (UTC) (F)     (DEG/KT/KT) (MB)    (FT/S) (FT/S)
CAPE MAY NJ      0300      74  130/  3/  4 1012.4
LEWES DE         0300      72  160/  3/  4 1012.6
OCEAN-CITY-INLET 0300      76  210/  3/  4 1013.2
WACHAPREAGUE VA  0300      89  220/  4/  5 1013.1
THOMAS POINT MD  0400   85 85  210/  8/  9 1013.9F
GOOSES REEF MD   0400   85 86  230/  8/ 10 1013.8R   0
COVE POINT MD    0300          240/  6/  7 1013.3
SOLOMONS ISLAND  0300      87  210/  7/  9   N/A
BISHOPS HEAD MD  0300          210/  6/  7 1013.1
PINEY POINT MD   0300           CALM  /  1   N/A
POTOMAC MD       0400   81 86  260/  8/ 10 1011.8R   0
CAMBRIDGE MD     0300      88  200/  2/  4 1012.0
LEWISETTA VA     0300      88  220/  7/  8 1012.5
RAPPAHANNOCK LGT 0300          150/  8/  8 1013.8
STINGRAY PT      0400   83 87  160/  4/  4 1013.3F   0
YORK RVR RNG VA  0300          170/  4/  5 1012.5
YORKTOWN VA      0300      85   CALM  /  2 1012.6
JAMESTOWN VA     0400   80 89   CALM  /  2   N/A     0
DOMINION TERM VA 0300           40/  2/  4 1013.1
KIPTOPEKE VA     0300      80  160/  5/  6   N/A
CHES BAY BRIDGE  0300      80  140/  8/  9 1013.0
CAPE HENRY VA    0300          150/  6/  8   N/A
WILLOUBY STN VA  0300           60/  5/  6   N/A
CAPE HENRY BUOY  0312      76                N/A     1/ 8
1ST LANDING BUOY 0400   81 81  150/  6/  8 1012.8S   1/ 4
CAPE CHARLES BUO 0326      78                N/A     1/ 5
OFFSHORE WE BUOY 0321      82                N/A     2/ 6
64NM E OF VA BCH 0350   82 83  180/  8/ 10 1012.7F   2/ 5   2/ 5
DUCK PIER NC     0300      67  210/ 16/ 19 1012.4
44100 DUCK FRF   0305      76                N/A     1/ 5
44056 DUCK FRF   0311      73                N/A     1/ 8
OREGON INLET NC  0300      80  240/ 17/ 20 1013.0
HATTERAS NC      0300      83  260/ 16/ 20 1013.3
DIAMOND SHLS NC  0350   83 85  270/ 14/ 17 1013.8S   4/ 4   2/ 8
CAPE LOOKOUT NC  0400   76     300/ 14/ 17 1014.6F
$$



USA.gov is the U.S. government's official web portal to all federal, state and local government web resources and services.